Weather History for Van, Turkey

Change the Weather History Date:

Saturday, November 3, 2012

  Actual Average Record
Temperature  
Mean Temperature 50 °F -  
Max Temperature 56 °F 49 °F 57 °F (2001)
Min Temperature 45 °F 31 °F 26 °F (2010)
Degree Days  
Heating Degree Days 14    
Moisture  
Dew Point 43 °F    
Average Humidity 76    
Maximum Humidity 93    
Minimum Humidity 55    
Precipitation  
Precipitation 0.24 in 0.05 in - ()
Sea Level Pressure  
Sea Level Pressure 30.18 in    
Wind  
Wind Speed 3 mph ()    
Max Wind Speed 8 mph    
Max Gust Speed -    
Visibility 6.2 miles    
Events Rain    
Averages and records for this station are not official NWS values.
T = Trace of Precipitation, MM = Missing Value Source: Averaged Metar Reports

Daily Weather History Graph

Daily Weather History Graph

Search for Another Location

Airport:

Trip Planner

Search our weather history database for the weather conditions in past years. The results will help you decide how hot, cold, wet, or windy it might be!

Date:

Astronomy

Nov. 03, 2012 Rise Set
Actual Time 5:35 AM EET 4:04 PM EET
Civil Twilight 5:07 AM EET 4:31 PM EET
Nautical Twilight 4:36 AM EET 5:03 PM EET
Astronomical Twilight 4:05 AM EET 5:34 PM EET
Moon 7:26 PM EET (11/3) 9:22 AM EET (11/3)
Length of Visible Light 11h 24m
Length of Day
10h 29m
Waning Gibbous, 82% of the Moon is Illuminated
Nov 3
Waning Gibbous
Nov 7
Last Quarter
Nov 14
New
Nov 20
First Quarter
Nov 28
Full

Hourly Weather History & Observations

Time (EET) Temp. Dew Point Humidity Pressure Visibility Wind Dir Wind Speed Gust Speed Precip Events Conditions
12:50 AM 48.2 °F 39.2 °F 71% 30.15 in 6.2 mi NNE 3.5 mph - N/A   Mostly Cloudy
1:50 AM 48.2 °F 41.0 °F 76% 30.15 in 6.2 mi ESE 2.3 mph - N/A   Mostly Cloudy
2:00 AM 48 °F 41 °F 68%  in 6 mi ESE 2.3 mph - -   Partly Cloudy
2:50 AM 48.2 °F 39.2 °F 71% 30.15 in 6.2 mi SSE 2.3 mph - N/A   Mostly Cloudy
3:50 AM 48.2 °F 39.2 °F 71% 30.15 in 6.2 mi ENE 3.5 mph - N/A   Mostly Cloudy
4:50 AM 48.2 °F 41.0 °F 76% 30.15 in 6.2 mi ENE 4.6 mph - N/A   Mostly Cloudy
5:50 AM 48.2 °F 39.2 °F 71% 30.15 in 6.2 mi ESE 2.3 mph - N/A   Mostly Cloudy
6:50 AM 50.0 °F 42.8 °F 76% 30.18 in 6.2 mi East 2.3 mph - N/A   Mostly Cloudy
7:50 AM 50.0 °F 44.6 °F 82% 30.18 in 6.2 mi East 4.6 mph - N/A Rain Light Rain Showers
8:00 AM 50 °F 45 °F 78%  in 6 mi ESE 4.6 mph - - Rain Light Rain
8:50 AM 55.4 °F 41.0 °F 58% 30.18 in 6.2 mi NNE 3.5 mph - N/A   Mostly Cloudy
9:50 AM 55.4 °F 41.0 °F 58% 30.18 in 6.2 mi North 5.8 mph - N/A   Mostly Cloudy
10:50 AM 57.2 °F 41.0 °F 55% 30.18 in 6.2 mi Variable 2.3 mph - N/A   Mostly Cloudy
11:50 AM 55.4 °F 41.0 °F 58% 30.15 in 6.2 mi NNW 5.8 mph - N/A   Mostly Cloudy
12:50 PM 55.4 °F 42.8 °F 63% 30.15 in 6.2 mi Variable 2.3 mph - N/A   Mostly Cloudy
1:50 PM 53.6 °F 42.8 °F 67% 30.18 in 6.2 mi West 3.5 mph - N/A Rain Light Rain Showers
2:00 PM 53 °F 42 °F 57%  in 6 mi West 3.5 mph - - Rain Light Rain Showers
2:50 PM 51.8 °F 46.4 °F 82% 30.18 in 6.2 mi Variable 2.3 mph - N/A Rain Light Rain Showers
3:50 PM 51.8 °F 46.4 °F 82% 30.18 in 6.2 mi Variable 2.3 mph - N/A Rain Light Rain Showers
4:50 PM 50.0 °F 44.6 °F 82% 30.21 in 6.2 mi North 4.6 mph - N/A Rain Light Rain Showers
5:50 PM 50.0 °F 46.4 °F 87% 30.21 in 6.2 mi East 3.5 mph - N/A   Mostly Cloudy
6:50 PM 48.2 °F 46.4 °F 93% 30.21 in 6.2 mi Variable 2.3 mph - N/A Rain Light Rain Showers
7:50 PM 48.2 °F 46.4 °F 93% 30.21 in 6.2 mi ENE 5.8 mph - N/A Rain Light Rain Showers
8:00 PM 48 °F 47 °F 93%  in 6 mi ENE 5.8 mph - - Rain Light Rain Showers
8:50 PM 48.2 °F 46.4 °F 93% 30.21 in 6.2 mi East 8.1 mph - N/A Rain Light Rain Showers
9:50 PM 48.2 °F 46.4 °F 93% 30.21 in 6.2 mi East 6.9 mph - N/A   Mostly Cloudy
10:50 PM 48.2 °F 46.4 °F 93% 30.21 in 6.2 mi Variable 1.2 mph - N/A   Mostly Cloudy